Regional Weather Roundup
Issued by NWS

Home | Current Version | Previous Version | Graphics & Text | Print | Product List | Glossary On
Versions: 1 2 3 4 5 6 7 8 9 10 11 12 13 14 15 16 17 18 19 20 21 22 23 24 25 26 27 28 29 30 31 32 33 34 35 36 37 38 39 40 41 42 43 44 45 46 47 48 49 50
000
ASUS43 KMPX 191310
RWRMN
WEATHER ROUNDUP FOR MINNESOTA
NATIONAL WEATHER SERVICE TWIN CITIES/CHANHASSEN MN
800 AM CDT FRI SEP 19 2014


NOTE: "FAIR" INDICATES FEW OR NO CLOUDS BELOW 12,000 FEET WITH NO
SIGNIFICANT WEATHER AND/OR OBSTRUCTIONS TO VISIBILITY. N/A MEANS
CURRENT SKY AND/OR WEATHER CONDITIONS ARE NOT AVAILABLE.

MNZ060>063-068>070-191400-
   Twin Cities Metro

CITY           SKY/WX    TMP DP  RH WIND       PRES   REMARKS
TWIN CITIES    PTSUNNY   58  51  78 SE9       29.91F
ST PAUL        FAIR      58  50  75 SE12      29.93F
CRYSTAL        PTSUNNY   61  53  75 S12       29.89F
LAKEVILLE      PTSUNNY   57  52  82 S8        29.91S
EDEN PRAIRIE   PTSUNNY   61  54  77 S13       29.89F
SOUTH ST PAUL  PTSUNNY   59  49  69 S8        29.92F
LAKE ELMO      FAIR      55  50  82 S9        29.94S
$$
MNZ001>005-007-008-013>017-022>024-027-028-191400-
   Northwest Minnesota

CITY           SKY/WX    TMP DP  RH WIND       PRES   REMARKS
BEMIDJI        CLOUDY    60  53  77 S14       29.67F
HALLOCK        CLOUDY    63  59  88 S12       29.52F
ROSEAU         RAIN      63  57  82 S15G24    29.55F
WARROAD        DRIZZLE   61  57  88 S3        29.58F
THIEF RVR FALL CLOUDY    63  57  82 S20G26    29.57F
CROOKSTON      CLOUDY    63  57  82 S22G29    29.56F
FOSSTON          N/A     63  55  77 S17G25    29.64F
DETROIT LAKES  RAIN      61  55  82 S20       29.67F
MOORHEAD       CLOUDY    63  61  94 S10G17    29.68R
PARK RAPIDS    CLOUDY    60  54  80 S13       29.72F
MAHNOMEN       PTSUNNY   60  57  89 S14G21    29.64F
$$
MNZ006-009>011-018-025>026-191400-
   North Central Minnesota

CITY           SKY/WX    TMP DP  RH WIND       PRES   REMARKS
BAUDETTE       CLOUDY    60  56  86 S13       29.59F
FLAG ISLAND    LGT RAIN  61  57  88 SW18G32   29.51F
INTL FALLS     CLOUDY    57  54  89 S8        29.65F
WASKISH        CLOUDY    61  55  82 S5        29.65F
BIG FORK       CLOUDY    61  54  77 S14       29.71F
LONGVILLE      CLOUDY    59  55  88 S15G22    29.75F
GRAND RAPIDS   CLOUDY    57  52  82 S20G29    29.77F
CRANE LAKE     CLOUDY    57  52  82 S13G26    29.72S
ORR            CLOUDY    57  52  82 S12G17    29.71F
COOK           LGT RAIN  57  54  88 S10G25    29.76R
WALKER         CLOUDY    59  53  82 S14G21    29.71F
$$
MNZ012-019>021-037-191400-
   Northeast Minnesota

CITY           SKY/WX    TMP DP  RH WIND       PRES   REMARKS
DULUTH         CLOUDY    56  51  84 S18       29.85F
ELY            CLOUDY    57  52  82 SW12G23   29.78S
HIBBING        CLOUDY    59  53  80 S12G18    29.79F
EVELETH        CLOUDY    57  54  88 S12G20    29.81S
DULUTH HARBOR  CLOUDY    57  54  88 SW7       29.87F
TWO HARBORS    CLOUDY    46  43  87 CALM      29.85F HAZE
SILVER BAY     CLOUDY    45  45 100 CALM      29.85F FOG
GRAND MARAIS     N/A     53  50  89 CALM      29.87F
G MARAIS ARPRT FOG       48  46  93 S10G17    29.86F VSB 1/4
$$
MNZ029>031-032-039>041-046>048-054>057-064-191400-
   West Central Minnesota

CITY           SKY/WX    TMP DP  RH WIND       PRES   REMARKS
FERGUS FALLS   CLOUDY    61  54  77 S24G35    29.65F
WHEATON        CLOUDY    59  55  88 SE18G25   29.66F
MORRIS         CLOUDY    63  55  77 S17       29.73F
ALEXANDRIA     CLOUDY    60  56  86 S20G26    29.77F
ELBOW LAKE     MOCLDY    60  56  86 S20       29.73S
WADENA         CLOUDY    61  54  77 S15G22    29.74F
GLENWOOD       CLOUDY    61  55  82 S15       29.79F
APPLETON       CLOUDY    63  55  77 S10G16    29.74F
BENSON         CLOUDY    61  57  88 S12       29.76F
ORTONVILLE     CLOUDY    61  57  88 SE7G17    29.71F
MADISON        CLOUDY    64  57  77 S13       29.75F
WILLMAR        FAIR      63  55  77 S7        29.83F
$$
MNZ033>034-036-042>043-049>051-058-059-191400-
   Central Minnesota

CITY           SKY/WX    TMP DP  RH WIND       PRES   REMARKS
ST CLOUD       CLOUDY    62  54  74 S12       29.86F
SAUK CENTRE    CLOUDY    59  55  88 S14       29.81F
PAYNESVILLE    CLOUDY    58  55  91 SE16      29.82F
AITKIN         CLOUDY    61  54  77 S10       29.81S
PINE RIVER     CLOUDY    59  54  82 S10G17    29.80F
BRAINERD       LGT RAIN  57  54  89 S14G22    29.81F
STAPLES        CLOUDY    57  54  88 S15G21    29.78F
LONG PRAIRIE   CLOUDY    57  55  94 SE13      29.81F
LITTLE FALLS   CLOUDY    57  54  88 SE8       29.82F
LITCHFIELD     MOCLDY    61  57  88 SE6       29.85F
BUFFALO        CLOUDY    60  54  78 S10G16    29.90R
MAPLE LAKE     CLOUDY    60  56  85 S6        29.88S
$$
MNZ037-044-045-052-053-191400-
   East Central Minnesota

CITY           SKY/WX    TMP DP  RH WIND       PRES   REMARKS
PRINCETON      CLOUDY    61  55  82 S8        29.89S
MORA           CLOUDY    55  50  82 S10       29.90R
CAMBRIDGE      PTSUNNY   61  50  67 S9G16     29.87F
RUSH CITY      PTSUNNY   57  51  81 S12G17    29.89F
MOOSE LAKE     CLOUDY    55  52  88 S13       29.84F
HINCKLEY       FAIR      57  54  88 S9        29.88F
CLOQUET        CLOUDY    57  52  82 S13G18    29.86F
MCGREGOR       CLOUDY    57  54  88 S14G22    29.83F
$$
MNZ071>073-080-081-089-090-097-098-191400-
   Southwest Minnesota

CITY           SKY/WX    TMP DP  RH WIND       PRES   REMARKS
MONTEVIDEO     CLOUDY    63  57  82 S8        29.78F
GRANITE FALLS  CLOUDY    62  58  86 S14       29.82F
CANBY          CLOUDY    63  59  86 S13G22    29.76F
MARSHALL       CLOUDY    63  55  77 S22       29.78F
REDWOOD FALLS  CLOUDY    62  57  83 S13       29.83F
OLIVIA         CLOUDY    61  55  82 S10       29.83F
PIPESTONE      CLOUDY    61  59  94 S15       29.81F FOG
WINDOM         CLOUDY    61  57  88 S12       29.88S FOG
WORTHINGTON    CLOUDY    61  57  88 S14G20    29.87F VSB 1
JACKSON        CLOUDY    61  55  82 S15G21    29.89F
TRACY          CLOUDY    63  59  89 S16G25    29.82F FOG
SLAYTON        CLOUDY    60  59  99 S15       29.85F FOG
$$
MNZ065>067-074>077-082>085-091>093-191400-
   South Central Minnesota

CITY           SKY/WX    TMP DP  RH WIND       PRES   REMARKS
MANKATO        MOCLDY    59  50  72 S12       29.90S
NEW ULM        CLOUDY    61  57  88 S16       29.86F
ST JAMES       CLOUDY    61  57  88 S8        29.91R
FAIRMONT       CLOUDY    57  50  77 S13       29.91S
GLENCOE        CLOUDY    60  54  79 S6        29.88S
FARIBAULT      PTSUNNY   61  48  63 S12G21    29.92F
OWATONNA       PTSUNNY   57  50  77 S16G22    29.93F
WASECA         CLOUDY    59  50  72 S17G23    29.93F
ALBERT LEA     MOSUNNY   55  52  88 S13G18    29.95F
$$
MNZ078>079-086>088-094>096-191400-
   Southeast Minnesota

CITY           SKY/WX    TMP DP  RH WIND       PRES   REMARKS
ROCHESTER      MOSUNNY   54  48  80 S15G22    30.00F
RED WING       PTSUNNY   57  48  72 SE9       29.95F
STANTON        PTSUNNY   58  49  72 S13G22    29.91F
DODGE CENTER   MOSUNNY   55  50  82 S15       29.97F
WINONA         MOSUNNY   55  50  82 SE7       30.01F
AUSTIN         SUNNY     54  48  82 S10       29.97F
PRESTON        MOSUNNY   53  52  97 S12       30.02F
$$
ABBREVIATIONS USED IN REMARKS
   TC - TEMPERATURES IN CELSIUS
  WCI - WIND CHILL INDEX
   HX - HEAT INDEX
  VSB - VISIBILITY
$$


USA.gov is the U.S. government's official web portal to all federal, state and local government web resources and services.